Weather History for Bethel, AK

Change the Weather History Date:

Monday, October 8, 2012

  Actual Average Record
Temperature  
Mean Temperature 40 °F 35 °F  
Max Temperature 41 °F 40 °F 52 °F (2009)
Min Temperature 39 °F 29 °F 11 °F (1951)
Degree Days  
Heating Degree Days 25 31  
Month to date heating degree days 173 229  
Since 1 July heating degree days 1610 1455  
Cooling Degree Days 0    
Month to date cooling degree days 0  
Year to date cooling degree days 0  
Moisture  
Dew Point 39 °F    
Average Humidity 0    
Maximum Humidity 0    
Minimum Humidity 0    
Precipitation  
Precipitation 0.49 in 0.06 in 1.32 in (1983)
Month to date precipitation 2.04 0.52  
Year to date precipitation 18.89 14.69  
Snow  
Snow 0.00 in 0.10 in 2.20 in (1977)
Month to date snowfall 0.0 0.5  
Since 1 July snowfall 0.1 1.1  
Since 1 September snowfall 0.1 1.1  
Snow Depth 0.00 in    
Sea Level Pressure  
Sea Level Pressure 30.15 in    
Wind  
Wind Speed 13 mph (NNE)    
Max Wind Speed 20 mph    
Max Gust Speed 23 mph    
Visibility 5 miles    
Events Rain    
T = Trace of Precipitation, MM = Missing Value Source: NWS Daily Summary

Daily Weather History Graph

Daily Weather History Graph

Search for Another Location

Airport:

Trip Planner

Search our weather history database for the weather conditions in past years. The results will help you decide how hot, cold, wet, or windy it might be!

Date:

Astronomy

Oct. 08, 2012 Rise Set
Actual Time 9:12 AM AKDT 7:55 PM AKDT
Civil Twilight 8:29 AM AKDT 8:37 PM AKDT
Nautical Twilight 7:40 AM AKDT 9:27 PM AKDT
Astronomical Twilight 6:49 AM AKDT 10:17 PM AKDT
Moon 12:16 AM AKDT (10/8) 5:28 PM AKDT (10/8)
Length of Visible Light 12h 07m
Length of Day
10h 42m
Last Quarter, 45% of the Moon is Illuminated
Oct 8
Last Quarter
Oct 15
New
Oct 21
First Quarter
Oct 29
Full
Nov 6
Last Quarter

Hourly Weather History & Observations

Time (AKDT) Temp. Windchill Dew Point Humidity Pressure Visibility Wind Dir Wind Speed Gust Speed Precip Events Conditions
12:03 AM 41.0 °F 34.3 °F 41.0 °F 100% 30.08 in 2.0 mi NNE 11.5 mph - 0.01 in Rain Light Rain
12:25 AM 41.0 °F 33.5 °F 39.2 °F 93% 30.09 in 1.5 mi NNE 13.8 mph - 0.02 in Rain Light Rain
12:51 AM 41.0 °F 34.3 °F 39.2 °F 93% 30.09 in 2.0 mi NNE 11.5 mph - 0.04 in Rain Light Rain
12:53 AM 41.0 °F 33.9 °F 39.9 °F 96% 30.10 in 2.0 mi NNE 12.7 mph - 0.04 in Rain Light Rain
1:26 AM 41.0 °F 34.7 °F 39.2 °F 93% 30.10 in 3.0 mi NNE 10.4 mph - 0.02 in Rain Light Rain
1:49 AM 41.0 °F 34.3 °F 39.2 °F 93% 30.10 in 2.5 mi NNE 11.5 mph - 0.04 in Rain Light Rain
1:53 AM 41.0 °F 35.2 °F 39.9 °F 96% 30.11 in 2.5 mi NNE 9.2 mph - 0.04 in Rain Light Rain
2:23 AM 41.0 °F 34.3 °F 39.2 °F 93% 30.11 in 3.0 mi NNE 11.5 mph - 0.03 in Rain Light Rain
2:42 AM 41.0 °F 34.7 °F 39.2 °F 93% 30.11 in 4.0 mi NNE 10.4 mph - 0.04 in Rain Light Rain
2:50 AM 41.0 °F 34.7 °F 39.2 °F 93% 30.11 in 4.0 mi NNE 10.4 mph - 0.06 in Rain Light Rain
2:53 AM 41.0 °F 35.2 °F 39.9 °F 96% 30.12 in 5.0 mi NNE 9.2 mph - 0.06 in Rain Light Rain
3:53 AM 39.9 °F 32.9 °F 39.9 °F 100% 30.11 in 7.0 mi NE 11.5 mph - 0.04 in Rain Light Rain
4:00 AM 39.2 °F 32.5 °F 39.2 °F 100% 30.11 in 9.0 mi NNE 10.4 mph - 0.00 in Rain Light Rain
4:26 AM 39.2 °F 32.0 °F 39.2 °F 100% 30.12 in 5.0 mi NNE 11.5 mph - 0.01 in Rain Light Rain
4:42 AM 39.2 °F 32.5 °F 39.2 °F 100% 30.12 in 2.0 mi NNE 10.4 mph - 0.02 in Rain Light Rain
4:53 AM 39.9 °F 33.4 °F 39.9 °F 100% 30.13 in 2.5 mi NNE 10.4 mph - 0.05 in Rain Rain
4:55 AM 39.2 °F 31.6 °F 39.2 °F 100% 30.12 in 3.0 mi NNE 12.7 mph - 0.00 in Rain Rain
5:46 AM 39.2 °F 31.2 °F 39.2 °F 100% 30.12 in 7.0 mi NNE 13.8 mph - 0.08 in Rain Light Rain
5:53 AM 39.9 °F 32.9 °F 39.0 °F 97% 30.13 in 7.0 mi NNE 11.5 mph - 0.09 in Rain Light Rain
6:03 AM 39.2 °F 32.0 °F 39.2 °F 100% 30.13 in 6.0 mi NNE 11.5 mph - 0.01 in Rain Light Rain
6:25 AM 39.2 °F 32.5 °F 39.2 °F 100% 30.13 in 4.0 mi NNE 10.4 mph - 0.05 in Rain Rain
6:53 AM 39.9 °F 32.9 °F 39.0 °F 97% 30.14 in 4.0 mi NNE 11.5 mph - 0.09 in Rain Rain
7:09 AM 39.2 °F 32.0 °F 39.2 °F 100% 30.13 in 6.0 mi NNE 11.5 mph - 0.02 in Rain Light Rain
7:23 AM 39.2 °F 31.6 °F 39.2 °F 100% 30.14 in 8.0 mi NNE 12.7 mph - 0.03 in Rain Light Rain
7:53 AM 39.0 °F 31.4 °F 39.0 °F 100% 30.14 in 4.0 mi NNE 12.7 mph - 0.05 in Rain Light Rain
8:53 AM 39.0 °F 30.3 °F 37.9 °F 96% 30.15 in 5.0 mi NNE 16.1 mph 21.9 mph 0.00 in Rain Light Rain
9:26 AM 39.2 °F 31.6 °F 37.4 °F 93% 30.16 in 2.0 mi NNE 12.7 mph - 0.01 in   Overcast
9:30 AM 39.2 °F 31.2 °F 37.4 °F 93% 30.16 in 1.5 mi NNE 13.8 mph - 0.01 in   Overcast
9:53 AM 39.0 °F 30.6 °F 37.9 °F 96% 30.17 in 1.5 mi NNE 15.0 mph 21.9 mph 0.02 in Rain Light Rain
10:53 AM 39.0 °F 31.0 °F 37.9 °F 96% 30.18 in 1.5 mi NNE 13.8 mph - 0.02 in   Overcast
11:07 AM 39.2 °F 30.2 °F 37.4 °F 93% 30.17 in 1.5 mi NNE 17.3 mph - N/A   Overcast
11:14 AM 39.2 °F 30.8 °F 37.4 °F 93% 30.18 in 1.5 mi NNE 15.0 mph - N/A   Overcast
11:53 AM 39.0 °F 31.0 °F 37.9 °F 96% 30.19 in 1.5 mi NNE 13.8 mph - 0.01 in Rain Light Rain
12:53 PM 39.9 °F 31.8 °F 39.0 °F 97% 30.21 in 2.0 mi NNE 15.0 mph - 0.01 in   Overcast
1:15 PM 39.2 °F 30.5 °F 39.2 °F 100% 30.20 in 1.5 mi NNE 16.1 mph - N/A   Overcast
1:53 PM 39.9 °F 31.8 °F 39.0 °F 97% 30.21 in 1.5 mi NNE 15.0 mph - 0.01 in Rain Light Rain
2:26 PM 39.2 °F 29.6 °F 39.2 °F 100% 30.20 in 2.0 mi NNE 19.6 mph 27.6 mph 0.00 in   Overcast
2:53 PM 39.9 °F 30.8 °F 39.0 °F 97% 30.20 in 2.0 mi NNE 18.4 mph - 0.00 in   Overcast
3:18 PM 39.2 °F 29.8 °F 39.2 °F 100% 30.19 in 4.0 mi NNE 18.4 mph 25.3 mph N/A   Overcast
3:23 PM 39.2 °F 30.8 °F 39.2 °F 100% 30.19 in 4.0 mi NNE 15.0 mph 25.3 mph N/A   Overcast
3:53 PM 39.9 °F 31.4 °F 39.0 °F 97% 30.21 in 10.0 mi NNE 16.1 mph - N/A   Overcast
4:37 PM 41.0 °F 33.5 °F 39.2 °F 93% 30.18 in 2.5 mi NNE 13.8 mph - N/A   Overcast
4:44 PM 41.0 °F 33.5 °F 39.2 °F 93% 30.18 in 3.0 mi NNE 13.8 mph - N/A   Overcast
4:53 PM 41.0 °F 33.1 °F 39.9 °F 96% 30.19 in 4.0 mi NNE 15.0 mph - N/A   Overcast
5:53 PM 41.0 °F 33.5 °F 39.9 °F 96% 30.18 in 10.0 mi NNE 13.8 mph 19.6 mph 0.01 in   Overcast
6:00 PM 41.0 °F 34.3 °F 39.2 °F 93% 30.17 in 10.0 mi NNE 11.5 mph - N/A   Overcast
6:53 PM 41.0 °F 32.8 °F 39.9 °F 96% 30.18 in 7.0 mi NNE 16.1 mph 21.9 mph N/A   Overcast
7:53 PM 39.9 °F 31.8 °F 39.0 °F 97% 30.18 in 10.0 mi NE 15.0 mph 20.7 mph N/A   Overcast
8:53 PM 39.9 °F 32.9 °F 39.0 °F 97% 30.19 in 10.0 mi NNE 11.5 mph - N/A   Overcast
9:53 PM 39.9 °F 32.9 °F 39.0 °F 97% 30.19 in 10.0 mi NNE 11.5 mph - N/A   Overcast
10:53 PM 39.0 °F 30.6 °F 37.9 °F 96% 30.17 in 10.0 mi NNE 15.0 mph - N/A   Overcast